Hourly Weather Roundup
Issued by NWS Central Illinois

Home | Current Version | Previous Version | Text Only | Print | Product List | Glossary On
Versions: 1 2 3 4 5 6 7 8 9 10 11 12 13 14 15 16 17 18 19 20 21 22 23 24 25 26 27 28 29 30 31 32 33 34 35 36 37 38 39 40 41 42 43 44 45 46 47 48 49 50
000
NZUS43 KILX 270310
HWRILX

AREA WEATHER ROUNDUP
NATIONAL WEATHER SERVICE, LINCOLN IL
900 PM CST SUN FEB 26 2017


CITY           SKY/WX    TMP DP  RH WIND       PRES   REMARKS
BLOOMINGTON    NOT AVBL
CHAMPAIGN      FAIR      31  19  61 S9        30.11R WCI  23
DECATUR        FAIR      37  23  56 S9        30.10R WCI  30
EFFINGHAM      CLOUDY    43  31  64 S3        30.14R
FLORA          MOCLDY    44  31  59 S6        30.14R
GALESBURG      CLOUDY    38  34  85 CALM        N/A
JACKSONVILLE   FAIR      38  28  69 S9        30.09R WCI  31
LACON          CLOUDY    40  25  54 SW7       30.05R
LAWRENCEVILLE  CLOUDY    46  27  47 SW14      30.14R
LITCHFIELD     CLOUDY    40  32  73 S12       30.11R WCI  33
$$


CITY           SKY/WX    TMP DP  RH WIND       PRES   REMARKS
LINCOLN        FAIR      35  25  67 S5        30.09R WCI  31
MACOMB         FAIR      37  23  57 S9        30.07R WCI  30
MATTOON        CLOUDY    42  25  50 S8        30.11R
MT CARMEL AP   CLOUDY    45  27  49 SW8       30.14S
OLNEY-NOBLE AP CLOUDY    43  30  61 S7        30.15R
PARIS          MOCLDY    36  27  70 S5        30.13R WCI  32
PEORIA         FAIR      36  24  62 S9        30.07R WCI  29
PONTIAC        FAIR      38  26  61 S12       30.08R WCI  31
RANTOUL        FAIR      37  24  57 S7        30.10R WCI  32
SPRINGFIELD    FAIR      40  25  55 S12       30.09R WCI  33
TAYLORVILLE    FAIR      36  24  63 S7        30.11R WCI  30
$$

...REGIONAL REPORTS...


CITY           SKY/WX    TMP DP  RH WIND       PRES   REMARKS
CHICAGO O`HARE FAIR      43  29  57 SW13      30.01R
KANKAKEE       FAIR      32  25  73 SW8       30.09R WCI  25
MOLINE         MOCLDY    37  30  75 CALM      30.03R
MOUNT STERLING FAIR      36  27  70 S9        30.06R WCI  29
MOUNT VERNON   CLOUDY    41  37  86 SW3       30.15R
PITTSFIELD     FAIR      38  32  76 S7        30.09R WCI  33
QUINCY         FAIR      37  29  72 S13       30.06R WCI  29
ROCKFORD       FAIR      37  29  72 SW6       30.02R WCI  32
$$


CITY           SKY/WX    TMP DP  RH WIND       PRES   REMARKS
BURLINGTON     CLOUDY    41  34  76 CALM      30.04R
CEDAR RAPIDS   FAIR      28  23  81 NW7       30.00R WCI  21
DES MOINES     FAIR      34  20  56 CALM      30.02R
KIRKSVILLE     FAIR      36  24  62 S9        30.04R WCI  29
OTTUMWA        CLOUDY    37  23  56 CALM      30.03R
ST LOUIS       CLOUDY    43  33  68 SW7       30.13R
$$


CITY           SKY/WX    TMP DP  RH WIND       PRES   REMARKS
TERRE HAUTE    MOCLDY    41  22  46 S7        30.13R
EVANSVILLE     CLOUDY    47  24  40 CALM      30.15R
INDIANAPOLIS   CLOUDY    38  16  40 S7        30.13R WCI  33
LAFAYETTE      MOCLDY    38  22  52 SW7       30.11R WCI  33
MADISON        FAIR      34  23  64 VRB5      29.97R WCI  30
MILWAUKEE      FAIR      36  23  59 SW7       29.97R WCI  30
$$





USA.gov is the U.S. government's official web portal to all federal, state and local government web resources and services.